Regional Weather Roundup
Issued by NWS

Home | Current Version | Previous Version | Text Only | Print | Product List | Glossary On
Versions: 1 2 3 4 5 6 7 8 9 10 11 12 13 14 15 16 17 18 19 20 21 22 23 24 25 26 27 28 29 30 31 32 33 34 35 36 37 38 39 40 41 42 43 44 45 46 47 48 49 50
000
ASCA44 KEWX 010620
RWRMX

LATIN AMERICA AND CARIBBEAN REGIONAL WEATHER ROUNDUP
NATIONAL WEATHER SERVICE AUSTIN/SAN ANTONIO TX
100 AM CDT TUE SEP 01 2015

NOTE: "FAIR" INDICATED FEW OR NO CLOUDS BELOW 12,000 FEET WITH NO
SIGNIFICANT WEATHER AND/OR OBSTRUCTIONS TO VISIBILITY.

BAJA CALIFORNIA

CITY           SKY/WX    TMP DP  RH WIND       PRES   REMARKS
LA PAZ           N/A    N/A N/A N/A MISG        N/A
TIJUANA        PTCLDY    68  57  68 S3        29.95R

NORTHWESTERN MEXICO

CITY           SKY/WX    TMP DP  RH WIND       PRES   REMARKS
CULIACAN       MOCLDY    82  75  78 CALM      29.90F
HERMOSILLO     MOCLDY    79  72  78 N7        29.90F

NORTHEASTERN MEXICO

CITY           SKY/WX    TMP DP  RH WIND       PRES   REMARKS
CHIHUAHUA      MOCLDY    64  36  34 CALM      30.12R
MONTERREY      PTCLDY    72  66  83 E6        30.02R

WESTERN MEXICO

CITY           SKY/WX    TMP DP  RH WIND       PRES   REMARKS
AGUASCALIENTES   N/A    N/A N/A N/A MISG        N/A
DEL BAJIO      RAIN      61  59  94 CALM      30.35S
GUADALAJARA    PTCLDY    64  59  82 CALM      30.20R
MAZATLAN       MOCLDY    75  72  88 N8        29.86F
P. VALLARTA    CLEAR     79  75  89 CALM      29.89R
ZACATECAS      PTCLDY    59  50  72 CALM      30.34R

CENTRAL MEXICO

CITY           SKY/WX    TMP DP  RH WIND       PRES   REMARKS
MEXICO CITY    PTCLDY    59  54  82 NE5       30.39S
PUEBLA         MOCLDY    57  54  88 S2        30.39F
QUERETARO      MOCLDY    61  59  94 NE8       30.34S
S. LUIS POTOSI MOCLDY    64  55  72 CALM      30.30S
TAMPICO          N/A    N/A N/A N/A MISG        N/A
TOLUCA         FOG       48  46  93 E3        30.46S VSB 1/2

SOUTHERN MEXICO

CITY           SKY/WX    TMP DP  RH WIND       PRES   REMARKS
ACAPULCO       PTCLDY    82  77  83 N3        29.90S HX  91
OAXACA         MOCLDY    64  63  94 CALM      30.29R
VERACRUZ         N/A    N/A N/A N/A MISG        N/A

YUCATAN PENINSULA

CITY           SKY/WX    TMP DP  RH WIND       PRES   REMARKS
CANCUN         CLOUDY    81  77  89 E6        30.02S
COZUMEL        PTCLDY    75  75 100 E3        30.01S
MERIDA         PTCLDY    77  75  94 E8        29.99S
TAPACHULA      CLOUDY    77  75  94 CALM      29.94F

CENTRAL AMERICA

CITY           SKY/WX    TMP DP  RH WIND       PRES   REMARKS
MANAGUA        PTCLDY    79  75  89 CALM      29.92S

CARIBBEAN

CITY           SKY/WX    TMP DP  RH WIND       PRES   REMARKS
ARUBA          PTCLDY    82  77  83 E16       29.89  HX  91
KINGSTON       PTCLDY    86  75  70 E8        29.97S HX  95
NASSAU         PTCLDY    82  77  83 E2        30.08F HX  91
SAN JUAN       MOCLDY    81  77  89 E6        30.02F
SANTO DOMINGO  PTCLDY    79  73  83 NE5       30.00F
ST. CROIX      PTCLDY    79  77  94 NE6       30.01F
ST. MAARTEN    PTCLDY    82  75  78 E8        30.00S
ST. THOMAS     PTCLDY    84  77  79 E6        30.01F HX  94

$$



USA.gov is the U.S. government's official web portal to all federal, state and local government web resources and services.